Find Starlink 11152

NORAD ID: 60194 Int'l Des: 2024-124 Owner: SPXS Country: US Constellation: starlink operational
LEOCIRCULAR

Live Position

Loading 3D Globe...

About Starlink 11152

Description loading...

Upcoming Passes

Passes for default location (London). Set your location on the main map for personalized predictions.

Altitude History

Loading altitude history...

Two-Line Element Set

1 60194U 24124M 26127.58377329 .00016480 00000-0 14060-3 0 9998
2 60194 53.1565 230.9546 0001092 72.0261 288.0876 15.69711499106970
Epoch: May 7, 2026 • Age: 8 hours

Current Status

Altitude 360.1 km
Velocity 7.70 km/s
Sub-Earth Point 24.64°N, 56.84°E
Launch Date Jul 3, 2024
Age 1.8 years
Type internet

Technical Details

Classification Payload
Mass 960.00 kg
Dry Mass 910.00 kg
Total Mass 960.00 kg
Length 0.30 m
Diameter 4.10 m
Span 29.00 m
Shape Box + pan
Manufacturer SPXS
Bus Type Starlink V2MD
Phase Status In Orbit
Owner/State SPXS/US

Most Searched